| time (UTC) | temp C | wind direction | speed KPH | gust KPH | rain 1hr cm | rain 24hr cm | rain mn cm | humidity % | barometer mb |
| 20260505032820 | 24 | 183 | 4.8 | 9.7 | 0.00 | 0.00 | 0.00 | 36 | 1018.6 |
| 20260505031522 | 23 | 197 | 6.4 | 9.7 | 0.00 | 0.00 | 0.00 | 37 | 1018.8 |
| 20260505030221 | 23 | 91 | 3.2 | 6.4 | 0.00 | 0.00 | 0.00 | 38 | 1019.0 |
| 20260505024921 | 23 | 175 | 0.0 | 3.2 | 0.00 | 0.00 | 0.00 | 37 | 1019.2 |
| 20260505023620 | 23 | 213 | 3.2 | 4.8 | 0.00 | 0.00 | 0.00 | 38 | 1019.5 |
| 20260505022321 | 23 | 177 | 3.2 | 6.4 | 0.00 | 0.00 | 0.00 | 37 | 1019.8 |
| 20260505021021 | 23 | 163 | 6.4 | 12.9 | 0.00 | 0.00 | 0.00 | 37 | 1019.8 |
| 20260505015721 | 23 | 223 | 6.4 | 14.5 | 0.00 | 0.00 | 0.00 | 37 | 1019.9 |
| 20260505014421 | 22 | 178 | 4.8 | 6.4 | 0.00 | 0.00 | 0.00 | 39 | 1019.9 |
| 20260505013120 | 22 | 203 | 6.4 | 9.7 | 0.00 | 0.00 | 0.00 | 40 | 1019.9 |
| 20260505011821 | 21 | 159 | 3.2 | 9.7 | 0.00 | 0.00 | 0.00 | 40 | 1020.0 |
| 20260505011202 | 21 | 173 | 3.2 | 6.4 | 0.00 | 0.00 | 0.00 | 42 | 1020.1 |
| 20260505010520 | 21 | 235 | 6.4 | 6.4 | 0.00 | 0.00 | 0.00 | 43 | 1020.0 |
| 20260505005222 | 21 | 178 | 1.6 | 6.4 | 0.00 | 0.00 | 0.00 | 52 | 1020.0 |
| 20260505003921 | 20 | 213 | 8.0 | 12.9 | 0.00 | 0.00 | 0.00 | 54 | 1020.0 |
| 20260505002621 | 20 | 174 | 1.6 | 1.6 | 0.00 | 0.00 | 0.00 | 58 | 1020.0 |
| 20260505001321 | 19 | 216 | 6.4 | 9.7 | 0.00 | 0.00 | 0.00 | 60 | 1020.0 |
| 20260505000021 | 18 | 201 | 3.2 | 4.8 | 0.00 | 0.00 | 0.00 | 61 | 1020.1 |
| 20260504234720 | 18 | 192 | 3.2 | 4.8 | 0.00 | 0.00 | 0.00 | 66 | 1020.1 |
| 20260504233421 | 17 | 198 | 6.4 | 8.0 | 0.00 | 0.00 | 0.00 | 67 | 1020.2 |
| 20260504232120 | 17 | 167 | 4.8 | 9.7 | 0.00 | 0.00 | 0.00 | 69 | 1020.2 |
| 20260504230822 | 16 | 202 | 4.8 | 3.2 | 0.00 | 0.00 | 0.00 | 70 | 1020.1 |
| 20260504225520 | 16 | 180 | 4.8 | 9.7 | 0.00 | 0.00 | 0.00 | 71 | 1019.9 |
| 20260504224221 | 15 | 160 | 3.2 | 8.0 | 0.00 | 0.00 | 0.00 | 75 | 1019.8 |
| 20260504222920 | 14 | 199 | 3.2 | 6.4 | 0.00 | 0.00 | 0.00 | 81 | 1019.8 |
| 20260504221620 | 13 | 205 | 0.0 | 3.2 | 0.00 | 0.00 | 0.00 | 88 | 1019.9 |
| 20260504220321 | 12 | 213 | 0.0 | 0.0 | 0.00 | 0.00 | 0.00 | 91 | 1019.8 |
| 20260504215021 | 11 | 213 | 0.0 | 1.6 | 0.00 | 0.00 | 0.00 | 93 | 1019.8 |
| 20260504213720 | 11 | 213 | 1.6 | 4.8 | 0.00 | 0.00 | 0.00 | 93 | 1019.7 |
| 20260504212422 | 10 | 213 | 1.6 | 4.8 | 0.00 | 0.00 | 0.00 | 93 | 1019.7 |
| 20260504211121 | 10 | 213 | 0.0 | 1.6 | 0.00 | 0.00 | 0.00 | 93 | 1019.6 |
| 20260504205821 | 10 | 175 | 1.6 | 4.8 | 0.00 | 0.00 | 0.00 | 93 | 1019.3 |
| 20260504204521 | 10 | 175 | 0.0 | 3.2 | 0.00 | 0.00 | 0.00 | 93 | 1019.2 |
| 20260504203220 | 10 | 175 | 0.0 | 1.6 | 0.00 | 0.00 | 0.00 | 93 | 1019.2 |
| 20260504201922 | 10 | 175 | 0.0 | 3.2 | 0.00 | 0.00 | 0.00 | 93 | 1019.1 |
| 20260504200621 | 10 | 175 | 0.0 | 3.2 | 0.00 | 0.00 | 0.00 | 93 | 1019.0 |
| 20260504195321 | 10 | 175 | 0.0 | 1.6 | 0.00 | 0.00 | 0.00 | 93 | 1018.8 |
| 20260504194020 | 10 | 175 | 0.0 | 1.6 | 0.00 | 0.00 | 0.00 | 93 | 1018.9 |
| 20260504192720 | 10 | 175 | 1.6 | 3.2 | 0.00 | 0.00 | 0.00 | 93 | 1018.7 |
| 20260504191420 | 11 | 175 | 0.0 | 1.6 | 0.00 | 0.00 | 0.00 | 92 | 1018.6 |
| 20260504190121 | 11 | 175 | 1.6 | 4.8 | 0.00 | 0.00 | 0.00 | 93 | 1018.6 |
| 20260504184821 | 11 | 175 | 1.6 | 3.2 | 0.00 | 0.00 | 0.00 | 92 | 1018.5 |
| 20260504183520 | 11 | 175 | 1.6 | 3.2 | 0.00 | 0.00 | 0.00 | 92 | 1018.5 |
| 20260504182221 | 11 | 175 | 0.0 | 1.6 | 0.00 | 0.00 | 0.00 | 92 | 1018.4 |
| 20260504180920 | 11 | 175 | 1.6 | 3.2 | 0.00 | 0.00 | 0.00 | 91 | 1018.4 |
| 20260504175622 | 11 | 175 | 1.6 | 3.2 | 0.00 | 0.00 | 0.00 | 91 | 1018.3 |
| 20260504174322 | 11 | 175 | 1.6 | 3.2 | 0.00 | 0.00 | 0.00 | 91 | 1018.2 |
| 20260504173021 | 11 | 175 | 0.0 | 1.6 | 0.00 | 0.00 | 0.00 | 91 | 1018.2 |
| 20260504171721 | 11 | 175 | 1.6 | 6.4 | 0.00 | 0.00 | 0.00 | 90 | 1018.1 |
| 20260504170420 | 12 | 174 | 1.6 | 6.4 | 0.00 | 0.00 | 0.00 | 90 | 1018.0 |
| 20260504150721 | 13 | 172 | 1.6 | 3.2 | 0.00 | 0.00 | 0.00 | 87 | 1017.9 |
| 20260504140220 | 13 | 164 | 1.6 | 4.8 | 0.00 | 0.00 | 0.00 | 85 | 1017.9 |
| 20260504081120 | 18 | 272 | 14.5 | 17.7 | 0.00 | 0.15 | 0.00 | 60 | 1014.7 |
| 20260504060122 | 18 | 271 | 12.9 | 22.5 | 0.00 | 0.74 | 0.00 | 51 | 1014.3 |
| 20260504045621 | 20 | 247 | 20.9 | 27.4 | 0.00 | 1.60 | 0.00 | 49 | 1013.4 |
| 20260504044321 | 20 | 278 | 9.7 | 19.3 | 0.00 | 1.63 | 0.00 | 48 | 1013.4 |
| 20260504043020 | 19 | 225 | 6.4 | 9.7 | 0.00 | 1.68 | 0.00 | 53 | 1013.6 |
| 20260504041721 | 19 | 273 | 16.1 | 22.5 | 0.00 | 1.78 | 0.00 | 52 | 1013.2 |
| 20260504040420 | 19 | 289 | 11.3 | 17.7 | 0.00 | 1.78 | 0.00 | 52 | 1013.5 |
| 20260504035121 | 19 | 262 | 9.7 | 30.6 | 0.00 | 1.83 | 0.00 | 52 | 1013.4 |
| 20260504033821 | 19 | 275 | 4.8 | 19.3 | 0.00 | 1.83 | 0.00 | 55 | 1013.3 |